EW8138 Weather Reports


Display with metric or nautical units.
time (UTC)temp
F
wind
direction
speed
MPH
gust
MPH
rain 1hr
in
rain 24hr
in
rain mn
in
humidity
%
barometer
mb
20260508144526 55 308 0.0 4.0 0.00 0.01 0.01 65 1012.0
20260508143023 55 248 0.0 1.0 0.00 0.01 0.01 65 1012.2
20260508141523 55 236 0.0 3.0 0.00 0.01 0.01 68 1012.1
20260508140016 54 289 0.0 3.0 0.00 0.01 0.01 68 1012.1
20260508134514 54 233 0.0 0.0 0.00 0.01 0.01 69 1012.1
20260508133009 53 227 0.0 1.0 0.00 0.01 0.01 71 1012.1
20260508131505 52 228 0.0 1.0 0.00 0.01 0.01 71 1012.2
20260508130002 51 225 0.0 2.0 0.00 0.01 0.01 72 1012.1
20260508124501 51 230 0.0 2.0 0.00 0.01 0.01 72 1012.1
20260508123057 50 219 0.0 8.0 0.00 0.01 0.01 73 1012.0
20260508121554 49 231 0.0 4.0 0.00 0.01 0.01 74 1012.1
20260508120051 48 227 0.0 0.0 0.00 0.01 0.01 76 1011.9
20260508114548 47 225 0.0 0.0 0.00 0.01 0.01 77 1011.8
20260508113045 46 217 0.0 0.0 0.00 0.01 0.01 80 1011.6
20260508111541 45 219 0.0 0.0 0.00 0.01 0.01 80 1011.6
20260508110036 45 225 0.0 0.0 0.00 0.01 0.01 81 1011.6
20260508104534 44 217 0.0 0.0 0.00 0.01 0.01 82 1011.6
20260508103035 44 215 0.0 0.0 0.00 0.01 0.01 83 1011.5
20260508101534 44 217 0.0 0.0 0.00 0.01 0.01 84 1011.4
20260508100030 44 217 0.0 0.0 0.00 0.01 0.01 84 1011.2
20260508094530 44 218 0.0 0.0 0.00 0.01 0.01 85 1011.3
20260508093028 44 223 0.0 0.0 0.00 0.01 0.01 86 1011.4
20260508091526 44 224 0.0 0.0 0.00 0.01 0.01 88 1011.5
20260508090128 44 243 0.0 0.0 0.00 0.01 0.01 89 1011.5
20260508084524 44 245 0.0 0.0 0.00 0.01 0.01 89 1011.6
20260508083024 44 245 0.0 0.0 0.00 0.01 0.01 89 1011.6
20260508081523 44 246 0.0 0.0 0.00 0.01 0.01 89 1011.7
20260508080019 45 271 0.0 0.0 0.00 0.01 0.01 88 1011.8
20260508074523 46 271 0.0 0.0 0.00 0.01 0.01 88 1011.9
20260508073014 46 360 0.0 0.0 0.00 0.01 0.01 88 1012.0
20260508071511 47 360 0.0 0.0 0.00 0.01 0.01 88 1012.3
20260508070012 47 242 0.0 0.0 0.00 0.01 0.01 88 1012.4
20260508064510 47 236 0.0 0.0 0.00 0.01 0.01 86 1012.1
20260508063009 48 236 0.0 0.0 0.01 0.01 0.01 85 1012.5
20260508061505 48 236 0.0 0.0 0.01 0.01 0.01 80 1013.0
20260508060007 48 236 0.0 0.0 0.01 0.01 0.01 79 1013.2
20260508054504 49 236 0.0 0.0 0.01 0.01 0.01 77 1013.0
20260508053003 48 261 0.0 4.0 0.00 0.00 0.00 75 1013.4
20260508051614 48 220 0.0 0.0 0.00 0.00 0.00 80 1013.5
20260508050057 48 220 0.0 0.0 0.00 0.00 0.00 77 1012.6
20260508044557 48 220 0.0 0.0 0.00 0.00 0.00 80 1012.3
20260508043056 48 252 0.0 0.0 0.00 0.00 0.00 80 1012.4
20260508041555 48 288 0.0 0.0 0.00 0.00 0.00 80 1012.4
20260508040056 48 289 0.0 0.0 0.00 0.00 0.00 77 1012.6
20260508034552 48 289 0.0 0.0 0.00 0.00 0.00 73 1012.7
20260508033057 49 289 0.0 0.0 0.00 0.00 0.00 71 1012.7
20260508031556 49 289 0.0 0.0 0.00 0.00 0.00 69 1012.7
20260508030058 50 289 0.0 0.0 0.00 0.00 0.00 64 1012.8
20260508024614 50 289 0.0 0.0 0.00 0.00 0.00 61 1013.1
20260508023048 51 289 0.0 0.0 0.00 0.00 0.00 59 1012.7
20260508021551 51 289 0.0 0.0 0.00 0.00 0.00 59 1012.7
20260508020053 52 289 0.0 0.0 0.00 0.00 0.00 56 1012.6
20260508014552 52 289 0.0 0.0 0.00 0.00 0.00 54 1012.7
20260508013046 52 290 0.0 0.0 0.00 0.00 0.00 53 1012.6
20260508011548 53 316 0.0 0.0 0.00 0.00 0.00 51 1012.5
20260508010052 53 286 0.0 2.0 0.00 0.00 0.00 49 1012.5
20260508004552 53 315 0.0 0.0 0.00 0.00 0.00 47 1012.5
20260508003044 54 235 0.0 2.0 0.00 0.00 0.00 48 1012.3
20260508001547 54 263 0.0 0.0 0.00 0.00 0.00 48 1012.0
20260508000043 55 281 0.0 0.0 0.00 0.00 0.00 46 1011.9
20260507234542 55 267 0.0 0.0 0.00 0.00 0.00 45 1011.8
20260507233042 56 279 0.0 0.0 0.00 0.00 0.00 43 1011.7
20260507231544 56 267 0.0 0.0 0.00 0.00 0.00 44 1011.8
20260507230055 55 302 0.0 0.0 0.00 0.00 0.00 44 1011.8
20260507224541 56 274 0.0 0.0 0.00 0.00 0.00 43 1012.1
20260507223040 57 310 0.0 8.0 0.00 0.00 0.00 41 1012.2
20260507221543 58 288 0.0 5.0 0.00 0.00 0.00 41 1012.1
20260507220037 58 289 0.0 6.0 0.00 0.00 0.00 43 1012.1
20260507214537 55 302 0.0 10.0 0.00 0.00 0.00 44 1012.0
20260507213037 56 290 0.0 1.0 0.00 0.00 0.00 45 1011.9
20260507211535 57 5 1.0 9.0 0.00 0.00 0.00 44 1011.9
20260507210039 57 290 0.0 8.0 0.00 0.00 0.00 44 1011.9
20260507204534 57 46 0.0 8.0 0.00 0.00 0.00 43 1011.8
20260507203103 58 255 0.0 14.0 0.00 0.00 0.00 43 1011.9
20260507201533 57 305 1.0 12.0 0.00 0.00 0.00 42 1012.0
20260507200031 57 17 0.0 16.0 0.00 0.00 0.00 44 1011.9
20260507194530 57 269 0.0 8.0 0.00 0.00 0.00 47 1011.9
20260507193026 55 342 2.0 10.0 0.00 0.00 0.00 50 1012.2
20260507191527 56 311 2.0 12.0 0.00 0.00 0.00 47 1012.3
20260507190025 57 277 0.0 10.0 0.00 0.00 0.00 49 1012.4
20260507184524 56 295 0.0 14.0 0.00 0.00 0.00 49 1012.5
20260507183022 56 250 0.0 12.0 0.00 0.00 0.00 51 1012.5
20260507181519 55 304 1.0 11.0 0.00 0.00 0.00 51 1012.5
20260507180022 55 269 1.0 12.0 0.00 0.00 0.00 53 1012.7
20260507174523 55 261 0.0 7.0 0.00 0.00 0.00 54 1012.7
20260507173039 55 301 2.0 11.0 0.00 0.00 0.00 52 1012.7
20260507171521 54 300 0.0 8.0 0.00 0.00 0.00 53 1012.9
20260507170014 54 228 0.0 9.0 0.00 0.00 0.00 57 1013.0
20260507164516 54 326 0.0 11.0 0.00 0.00 0.00 55 1013.1
20260507163009 53 307 0.0 9.0 0.00 0.00 0.00 57 1013.1
20260507161506 54 280 1.0 10.0 0.00 0.00 0.00 55 1013.1
20260507160004 53 318 1.0 10.0 0.00 0.00 0.00 52 1013.0
20260507154600 53 279 1.0 11.0 0.00 0.00 0.00 48 1013.0
20260507153059 53 277 0.0 9.0 0.00 0.00 0.00 49 1012.9
20260507151554 53 302 0.0 2.0 0.00 0.00 0.00 56 1012.9
20260507150050 52 284 0.0 11.0 0.00 0.00 0.00 53 1012.9